Change the Weather History Date:

Wednesday, January 23, 2013

  Actual Average (LRAR) Record (LRAR)
Temperature  
Mean Temperature 34 °F -  
Max Temperature 39 °F 40 °F 55 °F (2007)
Min Temperature 30 °F 27 °F 8 °F (2006)
Degree Days  
Heating Degree Days 30    
Moisture  
Dew Point 33 °F    
Average Humidity 92    
Maximum Humidity 100    
Minimum Humidity 81    
Precipitation  
Precipitation 0.00 in 0.03 in - ()
Sea Level Pressure  
Sea Level Pressure 29.80 in    
Wind  
Wind Speed 8 mph ()    
Max Wind Speed 12 mph    
Max Gust Speed -    
Visibility 4.4 miles    
Events Rain , Snow    
Averages and records for this station are not official NWS values.
T = Trace of Precipitation, MM = Missing Value Source: Averaged Metar Reports

Daily Weather History Graph

Daily Weather History Graph

Search for Another Location

Airport or City:

Trip Planner

Search our weather history database for the weather conditions in past years. The results will help you decide how hot, cold, wet, or windy it might be!

Date:

Astronomy

Jan. 23, 2013 Rise Set
Actual Time 7:12 AM CET 4:31 PM CET
Civil Twilight 6:39 AM CET 5:04 PM CET
Nautical Twilight 6:02 AM CET 5:40 PM CET
Astronomical Twilight 5:27 AM CET 6:16 PM CET
Moon 1:23 PM CET (1/23) 4:11 AM CET (1/23)
Length of Visible Light 10h 24m
Length of Day
9h 18m
Waxing Gibbous, 87% of the Moon is Illuminated
Jan 23
Waxing Gibbous
Jan 27
Full
Feb 3
Last Quarter
Feb 10
New
Feb 17
First Quarter

Hourly Weather History & Observations

Time (CET) Temp. Windchill Dew Point Humidity Pressure Visibility Wind Dir Wind Speed Gust Speed Precip Events Conditions
12:45 AM 30.2 °F 21.3 °F 28.4 °F 93% 29.71 in 4.3 mi SW 10.4 mph - N/A   Partly Cloudy
1:00 AM 31 °F - 29 °F 89% 29.73 in 4 mi SW 8.9 mph - -   Partly Cloudy
1:45 AM 30.2 °F 20.8 °F 28.4 °F 93% 29.71 in 5.0 mi WSW 11.5 mph - N/A   Partly Cloudy
2:45 AM 30.2 °F 21.9 °F 28.4 °F 93% 29.71 in 3.7 mi WSW 9.2 mph - N/A   Scattered Clouds
3:45 AM 32.0 °F 23.6 °F 30.2 °F 93% 29.74 in 3.7 mi WSW 10.4 mph - N/A   Mostly Cloudy
4:45 AM 32.0 °F 24.8 °F 30.2 °F 93% 29.74 in 3.7 mi SW 8.1 mph - N/A   Mostly Cloudy
5:15 AM 32.0 °F 23.6 °F 30.2 °F 93% 29.74 in 5.0 mi WSW 10.4 mph - N/A   Overcast
5:23 AM 32.0 °F 23.6 °F 30.2 °F 93% 29.77 in 4.3 mi WSW 10.4 mph - N/A Snow Light Snow
5:45 AM 32.0 °F 23.6 °F 30.2 °F 93% 29.77 in 3.7 mi WSW 10.4 mph - N/A Snow Light Snow
6:15 AM 32.0 °F 23.6 °F 30.2 °F 93% 29.77 in 5.0 mi WSW 10.4 mph - N/A   Overcast
6:45 AM 32.0 °F 24.2 °F 30.2 °F 93% 29.77 in 2.8 mi WSW 9.2 mph - N/A   Scattered Clouds
7:00 AM 33 °F - 30 °F 86% 29.79 in 3 mi WSW 8.9 mph - - Snow Light Snow
7:15 AM 33.8 °F 25.3 °F 30.2 °F 87% 29.77 in 3.1 mi WSW 11.5 mph - N/A   Scattered Clouds
7:45 AM 33.8 °F 25.8 °F 32.0 °F 93% 29.80 in 2.8 mi WSW 10.4 mph - N/A   Overcast
8:15 AM 33.8 °F 26.4 °F 32.0 °F 93% 29.80 in 3.7 mi WSW 9.2 mph - N/A   Overcast
8:45 AM 33.8 °F 26.4 °F 32.0 °F 93% 29.80 in 3.7 mi WSW 9.2 mph - N/A Snow Light Snow
9:15 AM 33.8 °F 27.7 °F 32.0 °F 93% 29.83 in - SW 6.9 mph - N/A Snow Light Snow
9:45 AM 33.8 °F 27.7 °F 32.0 °F 93% 29.83 in - SW 6.9 mph - N/A Snow Light Snow
10:15 AM 33.8 °F 27.7 °F 32.0 °F 93% 29.83 in 3.1 mi WSW 6.9 mph - N/A Snow Light Snow
10:45 AM 33.8 °F 27.7 °F 32.0 °F 93% 29.83 in 3.1 mi WSW 6.9 mph - N/A   Overcast
11:15 AM 33.8 °F 27.7 °F 32.0 °F 93% 29.83 in 4.3 mi WSW 6.9 mph - N/A Rain Light Rain
11:45 AM 33.8 °F 28.6 °F 32.0 °F 93% 29.83 in 4.3 mi SW 5.8 mph - N/A Rain , Snow Light Rain
12:15 PM 33.8 °F 29.6 °F 33.8 °F 100% 29.83 in 3.1 mi SSW 4.6 mph - N/A   Overcast
1:15 PM 35.6 °F 30.7 °F 33.8 °F 93% 29.83 in 3.7 mi SSW 5.8 mph - N/A Rain Light Rain
1:45 PM 37.4 °F 33.8 °F 35.6 °F 93% 29.83 in 5.0 mi South 4.6 mph - N/A   Overcast
2:15 PM 37.4 °F 33.8 °F 35.6 °F 93% 29.83 in 5.6 mi SSW 4.6 mph - N/A   Mostly Cloudy
2:45 PM 39.2 °F 37.0 °F 35.6 °F 87% 29.83 in 5.6 mi South 3.5 mph - N/A   Mostly Cloudy
3:15 PM 39.2 °F 35.0 °F 35.6 °F 87% 29.83 in 6.2 mi South 5.8 mph - N/A   Mostly Cloudy
3:45 PM 39.2 °F 35.9 °F 33.8 °F 81% 29.83 in 6.2 mi South 4.6 mph - N/A   Mostly Cloudy
4:15 PM 37.4 °F 33.8 °F 35.6 °F 93% 29.83 in 5.0 mi SSE 4.6 mph - N/A   Mostly Cloudy
4:45 PM 37.4 °F 33.8 °F 35.6 °F 93% 29.83 in 3.7 mi SE 4.6 mph - N/A   Mostly Cloudy
5:15 PM 37.4 °F 32.8 °F 35.6 °F 93% 29.86 in 5.0 mi SE 5.8 mph - N/A   Mostly Cloudy
5:45 PM 37.4 °F 32.1 °F 35.6 °F 93% 29.86 in 6.2 mi SE 6.9 mph - N/A   Overcast
6:15 PM 37.4 °F 31.4 °F 35.6 °F 93% 29.83 in 6.2 mi SE 8.1 mph - N/A   Mostly Cloudy
6:45 PM 37.4 °F 32.1 °F 35.6 °F 93% 29.83 in 6.2 mi SE 6.9 mph - N/A   Mostly Cloudy
7:00 PM 37 °F - 35 °F 92% 29.85 in 6 mi SE 6.7 mph - -   Partly Cloudy
7:15 PM 37.4 °F 31.4 °F 35.6 °F 93% 29.83 in 6.2 mi SE 8.1 mph - N/A   Mostly Cloudy
7:45 PM 37.4 °F 31.4 °F 35.6 °F 93% 29.83 in - SE 8.1 mph - N/A   Clear
8:15 PM 37.4 °F 30.8 °F 35.6 °F 93% 29.83 in - SE 9.2 mph - N/A   Clear
8:45 PM 37.4 °F 31.4 °F 35.6 °F 93% 29.83 in 5.0 mi SE 8.1 mph - N/A   Mostly Cloudy
9:45 PM 35.6 °F 30.7 °F 33.8 °F 93% 29.83 in 4.3 mi SE 5.8 mph - N/A   Partly Cloudy
10:45 PM 33.8 °F 28.6 °F 32.0 °F 93% 29.83 in 3.7 mi SE 5.8 mph - N/A   Unknown
11:45 PM 32.0 °F 27.5 °F 32.0 °F 100% 29.83 in 2.5 mi SE 4.6 mph - N/A   Mist